UAL55 KJFK-KRDU

Flight info

Callsign UAL55
Flight time 1h 26m
Altitude 40000
Route WAVEY EMJAY Q167 ZJAAY TAQLE2
Aircraft B772/H-SDE2E3FGHIJ5LORVWXY/LB1D1

Departure

Time 2026-05-07 00:46
Airport John F. Kennedy International Airport (KJFK)

Arrival

Time 2026-05-07 02:13
Airport Raleigh-Durham International Airport (KRDU)
Time Latitude Longitude Altitude Speed Heading
2026-05-07 00:17 40.63855 -73.78204 25 ft 0 kts 84°
2026-05-07 00:31 40.63854 -73.78211 29 ft 2 kts 86°
2026-05-07 00:32 40.63855 -73.78233 28 ft 2 kts 96°
2026-05-07 00:32 40.63858 -73.78254 28 ft 2 kts 109°
2026-05-07 00:32 40.63865 -73.78274 31 ft 2 kts 124°
2026-05-07 00:32 40.63875 -73.78291 31 ft 2 kts 139°
2026-05-07 00:33 40.63888 -73.78303 31 ft 2 kts 150°
2026-05-07 00:33 40.63903 -73.78313 30 ft 2 kts 158°
2026-05-07 00:33 40.63917 -73.78320 30 ft 1 kts 158°
2026-05-07 00:33 40.63922 -73.78323 30 ft 0 kts 154°
2026-05-07 00:37 40.63913 -73.78317 30 ft 10 kts 154°
2026-05-07 00:37 40.63817 -73.78287 28 ft 18 kts 172°
2026-05-07 00:37 40.63697 -73.78266 28 ft 13 kts 173°
2026-05-07 00:37 40.63634 -73.78256 28 ft 6 kts 175°
2026-05-07 00:38 40.63615 -73.78255 28 ft 0 kts 179°
2026-05-07 00:39 40.63562 -73.78269 28 ft 7 kts 199°
2026-05-07 00:39 40.63506 -73.78307 27 ft 9 kts 209°
2026-05-07 00:39 40.63446 -73.78297 28 ft 12 kts 143°
2026-05-07 00:39 40.63394 -73.78206 26 ft 12 kts 120°
2026-05-07 00:40 40.63353 -73.78110 32 ft 12 kts 116°
2026-05-07 00:40 40.63331 -73.78031 28 ft 6 kts 104°
2026-05-07 00:40 40.63342 -73.77898 29 ft 15 kts 70°
2026-05-07 00:40 40.63406 -73.77796 32 ft 15 kts 37°
2026-05-07 00:41 40.63490 -73.77720 31 ft 15 kts 31°
2026-05-07 00:41 40.63606 -73.77629 29 ft 21 kts 31°
2026-05-07 00:41 40.63735 -73.77529 26 ft 21 kts 30°
2026-05-07 00:41 40.63842 -73.77447 26 ft 18 kts 30°
2026-05-07 00:42 40.63941 -73.77368 29 ft 16 kts 31°
2026-05-07 00:42 40.64035 -73.77296 28 ft 16 kts 31°
2026-05-07 00:42 40.64127 -73.77222 31 ft 16 kts 31°
2026-05-07 00:42 40.64220 -73.77149 31 ft 16 kts 31°
2026-05-07 00:43 40.64313 -73.77077 29 ft 16 kts 30°
2026-05-07 00:43 40.64374 -73.77030 27 ft 8 kts 29°
2026-05-07 00:43 40.64458 -73.76993 28 ft 12 kts
2026-05-07 00:43 40.64554 -73.76951 24 ft 21 kts 28°
2026-05-07 00:44 40.64673 -73.76858 28 ft 18 kts 31°
2026-05-07 00:44 40.64780 -73.76776 30 ft 18 kts 30°
2026-05-07 00:44 40.64886 -73.76693 31 ft 18 kts 31°
2026-05-07 00:44 40.64990 -73.76612 31 ft 16 kts 31°
2026-05-07 00:45 40.65063 -73.76550 31 ft 10 kts 38°
2026-05-07 00:45 40.65088 -73.76476 30 ft 8 kts 92°
2026-05-07 00:45 40.65045 -73.76381 27 ft 16 kts 153°
2026-05-07 00:45 40.64945 -73.76416 26 ft 23 kts 210°
2026-05-07 00:46 40.64550 -73.76726 30 ft 120 kts 210°
2026-05-07 00:46 40.63603 -73.77460 490 ft 177 kts 210°
2026-05-07 00:46 40.62570 -73.78237 2144 ft 166 kts 217°
2026-05-07 00:46 40.61539 -73.79117 2930 ft 193 kts 219°
2026-05-07 00:47 40.60360 -73.80236 3263 ft 224 kts 221°
2026-05-07 00:47 40.59010 -73.81405 3971 ft 238 kts 210°
2026-05-07 00:47 40.57338 -73.81903 4760 ft 259 kts 183°
2026-05-07 00:47 40.55546 -73.81220 5712 ft 280 kts 156°
2026-05-07 00:48 40.54077 -73.79455 6732 ft 297 kts 130°
2026-05-07 00:48 40.53178 -73.76941 7588 ft 311 kts 112°
2026-05-07 00:48 40.52570 -73.74153 8451 ft 321 kts 108°
2026-05-07 00:48 40.52010 -73.71278 9363 ft 329 kts 108°
2026-05-07 00:49 40.51455 -73.68322 10222 ft 335 kts 108°
2026-05-07 00:49 40.50639 -73.65448 10604 ft 343 kts 130°
2026-05-07 00:49 40.48926 -73.63237 10822 ft 350 kts 155°
2026-05-07 00:49 40.46811 -73.61689 11533 ft 356 kts 160°
2026-05-07 00:50 40.44614 -73.60134 12015 ft 362 kts 159°
2026-05-07 00:50 40.42437 -73.58409 12003 ft 368 kts 155°
2026-05-07 00:50 40.40315 -73.56511 12052 ft 371 kts 152°
2026-05-07 00:50 40.38222 -73.54485 12932 ft 376 kts 150°
2026-05-07 00:51 40.36144 -73.52395 14021 ft 378 kts 150°
2026-05-07 00:51 40.34047 -73.50250 14876 ft 385 kts 150°
2026-05-07 00:51 40.31919 -73.48063 15622 ft 394 kts 149°
2026-05-07 00:51 40.29737 -73.45830 16387 ft 401 kts 150°
2026-05-07 00:52 40.27509 -73.43569 17189 ft 408 kts 149°
2026-05-07 00:52 40.25260 -73.41252 17989 ft 415 kts 149°
2026-05-07 00:52 40.22971 -73.38896 18682 ft 421 kts 150°
2026-05-07 00:52 40.20590 -73.36631 19346 ft 425 kts 153°
2026-05-07 00:53 40.18151 -73.34395 20009 ft 431 kts 153°
2026-05-07 00:53 40.15713 -73.32158 20671 ft 435 kts 154°
2026-05-07 00:53 40.13100 -73.30293 21131 ft 421 kts 172°
2026-05-07 00:53 40.10280 -73.29685 21741 ft 402 kts 191°
2026-05-07 00:54 40.07574 -73.30169 22503 ft 385 kts 206°
2026-05-07 00:54 40.05074 -73.31314 22901 ft 376 kts 215°
2026-05-07 00:54 40.02957 -73.33129 22891 ft 355 kts 230°
2026-05-07 00:54 40.01093 -73.35293 22892 ft 360 kts 230°
2026-05-07 00:55 39.99211 -73.37452 22889 ft 359 kts 230°
2026-05-07 00:55 39.97353 -73.39560 22888 ft 358 kts 229°
2026-05-07 00:55 39.95472 -73.41678 22889 ft 357 kts 229°
2026-05-07 00:55 39.93588 -73.43790 22887 ft 357 kts 229°
2026-05-07 00:56 39.91700 -73.45901 22888 ft 357 kts 229°
2026-05-07 00:56 39.89815 -73.48005 22893 ft 357 kts 229°
2026-05-07 00:56 39.87918 -73.50118 22897 ft 357 kts 229°
2026-05-07 00:56 39.86042 -73.52206 22897 ft 358 kts 229°
2026-05-07 00:57 39.84146 -73.54314 22896 ft 359 kts 229°
2026-05-07 00:57 39.82243 -73.56429 22898 ft 359 kts 229°
2026-05-07 00:57 39.80340 -73.58543 22895 ft 360 kts 229°
2026-05-07 00:57 39.78436 -73.60658 22892 ft 360 kts 229°
2026-05-07 00:58 39.76525 -73.62778 22898 ft 361 kts 229°
2026-05-07 00:58 39.74616 -73.64894 22900 ft 361 kts 229°
2026-05-07 00:58 39.72695 -73.67024 23303 ft 364 kts 229°
2026-05-07 00:58 39.71798 -73.68019 23665 ft 365 kts 229°
2026-05-07 00:59 39.70305 -73.69671 24240 ft 365 kts 229°
2026-05-07 00:59 39.68333 -73.71851 24999 ft 366 kts 229°
2026-05-07 00:59 39.66450 -73.73933 25615 ft 369 kts 229°
2026-05-07 01:00 39.64485 -73.76107 26195 ft 374 kts 229°
2026-05-07 01:00 39.62494 -73.78307 26780 ft 377 kts 229°
2026-05-07 01:00 39.60486 -73.80522 27367 ft 380 kts 229°
2026-05-07 01:00 39.58486 -73.82726 27945 ft 383 kts 229°
2026-05-07 01:01 39.56446 -73.84971 28511 ft 386 kts 229°
2026-05-07 01:01 39.54382 -73.87242 29025 ft 390 kts 229°
2026-05-07 01:01 39.52299 -73.89532 29499 ft 393 kts 229°
2026-05-07 01:01 39.50204 -73.91834 29975 ft 397 kts 229°
2026-05-07 01:02 39.48091 -73.94152 30396 ft 399 kts 229°
2026-05-07 01:02 39.45969 -73.96478 30807 ft 401 kts 230°
2026-05-07 01:02 39.43833 -73.98818 31200 ft 403 kts 230°
2026-05-07 01:02 39.41682 -74.01173 31562 ft 406 kts 230°
2026-05-07 01:03 39.39518 -74.03542 31825 ft 409 kts 230°
2026-05-07 01:03 39.35168 -74.08307 31893 ft 410 kts 230°
2026-05-07 01:04 39.30827 -74.13045 31892 ft 407 kts 230°
2026-05-07 01:04 39.26495 -74.17775 31899 ft 408 kts 230°
2026-05-07 01:05 39.22142 -74.22522 31899 ft 409 kts 229°
2026-05-07 01:05 39.17788 -74.27260 31901 ft 410 kts 229°
2026-05-07 01:06 39.13416 -74.32009 31893 ft 411 kts 229°
2026-05-07 01:06 39.09041 -74.36753 31908 ft 411 kts 229°
2026-05-07 01:07 39.04687 -74.41467 31905 ft 412 kts 229°
2026-05-07 01:07 39.00294 -74.46215 31906 ft 412 kts 229°
2026-05-07 01:08 38.95907 -74.50950 31908 ft 411 kts 229°
2026-05-07 01:08 38.91580 -74.55735 31904 ft 408 kts 231°
2026-05-07 01:09 38.87410 -74.60678 31906 ft 407 kts 231°
2026-05-07 01:09 38.83228 -74.65615 31906 ft 408 kts 231°
2026-05-07 01:10 38.79034 -74.70517 31903 ft 408 kts 231°
2026-05-07 01:10 38.74844 -74.75371 31907 ft 410 kts 229°
2026-05-07 01:11 38.70413 -74.80030 31902 ft 413 kts 228°
2026-05-07 01:11 38.65944 -74.84656 31899 ft 413 kts 228°
2026-05-07 01:12 38.61476 -74.89295 31899 ft 413 kts 228°
2026-05-07 01:12 38.57036 -74.93911 31904 ft 413 kts 228°
2026-05-07 01:13 38.52563 -74.98554 31903 ft 413 kts 228°
2026-05-07 01:13 38.48244 -75.03350 31910 ft 411 kts 230°
2026-05-07 01:14 38.43764 -75.07954 31909 ft 416 kts 225°
2026-05-07 01:14 38.39106 -75.12358 31913 ft 417 kts 225°
2026-05-07 01:15 38.34442 -75.16764 31916 ft 417 kts 225°
2026-05-07 01:15 38.29777 -75.21184 31914 ft 418 kts 225°
2026-05-07 01:16 38.25127 -75.25590 31912 ft 419 kts 225°
2026-05-07 01:16 38.20434 -75.30030 31909 ft 420 kts 225°
2026-05-07 01:17 38.15730 -75.34473 31905 ft 421 kts 225°
2026-05-07 01:17 38.11027 -75.38906 31853 ft 417 kts 225°
2026-05-07 01:18 38.06395 -75.43267 31165 ft 416 kts 224°
2026-05-07 01:18 38.04114 -75.45510 30427 ft 412 kts 226°
2026-05-07 01:18 38.01981 -75.47910 29723 ft 409 kts 228°
2026-05-07 01:18 37.99922 -75.50368 29025 ft 405 kts 229°
2026-05-07 01:19 37.97892 -75.52821 28430 ft 400 kts 229°
2026-05-07 01:19 37.95881 -75.55239 27810 ft 397 kts 229°
2026-05-07 01:19 37.93877 -75.57624 27198 ft 394 kts 229°
2026-05-07 01:19 37.91875 -75.59987 26578 ft 392 kts 229°
2026-05-07 01:20 37.89881 -75.62327 25978 ft 390 kts 229°
2026-05-07 01:20 37.87898 -75.64644 25411 ft 387 kts 230°
2026-05-07 01:20 37.85920 -75.66950 24856 ft 385 kts 230°
2026-05-07 01:20 37.83953 -75.69241 24323 ft 382 kts 230°
2026-05-07 01:21 37.81991 -75.71528 24116 ft 388 kts 230°
2026-05-07 01:21 37.80006 -75.73841 23963 ft 385 kts 230°
2026-05-07 01:21 37.78052 -75.76107 23931 ft 379 kts 230°
2026-05-07 01:21 37.76133 -75.78332 23924 ft 378 kts 230°
2026-05-07 01:22 37.74197 -75.80581 23925 ft 378 kts 230°
2026-05-07 01:22 37.72258 -75.82832 23924 ft 379 kts 230°
2026-05-07 01:22 37.70312 -75.85089 23926 ft 380 kts 230°
2026-05-07 01:22 37.68365 -75.87345 23926 ft 380 kts 230°
2026-05-07 01:23 37.66414 -75.89603 23924 ft 381 kts 230°
2026-05-07 01:23 37.64457 -75.91866 23922 ft 381 kts 230°
2026-05-07 01:23 37.62503 -75.94123 23923 ft 381 kts 230°
2026-05-07 01:23 37.60548 -75.96396 23926 ft 380 kts 231°
2026-05-07 01:24 37.58764 -75.98822 23928 ft 376 kts 236°
2026-05-07 01:24 37.57119 -76.01376 23928 ft 375 kts 238°
2026-05-07 01:24 37.55516 -76.03961 23924 ft 375 kts 238°
2026-05-07 01:24 37.53911 -76.06551 23920 ft 375 kts 238°
2026-05-07 01:25 37.52292 -76.09136 23925 ft 376 kts 237°
2026-05-07 01:25 37.50656 -76.11718 23924 ft 377 kts 237°
2026-05-07 01:25 37.49007 -76.14295 23923 ft 378 kts 237°
2026-05-07 01:25 37.47351 -76.16870 23922 ft 379 kts 237°
2026-05-07 01:26 37.45710 -76.19414 23915 ft 380 kts 237°
2026-05-07 01:26 37.44041 -76.21995 23919 ft 381 kts 237°
2026-05-07 01:26 37.42362 -76.24589 23917 ft 382 kts 237°
2026-05-07 01:26 37.40679 -76.27187 23917 ft 382 kts 237°
2026-05-07 01:27 37.38994 -76.29784 23918 ft 383 kts 237°
2026-05-07 01:27 37.37309 -76.32382 23919 ft 384 kts 236°
2026-05-07 01:27 37.35615 -76.34987 23921 ft 383 kts 236°
2026-05-07 01:27 37.34025 -76.37573 23892 ft 377 kts 242°
2026-05-07 01:28 37.32830 -76.40463 23608 ft 369 kts 252°
2026-05-07 01:28 37.32028 -76.43501 23098 ft 365 kts 257°
2026-05-07 01:28 37.31381 -76.46576 22587 ft 363 kts 258°
2026-05-07 01:28 37.30784 -76.49660 22088 ft 362 kts 259°
2026-05-07 01:29 37.30206 -76.52733 21609 ft 361 kts 259°
2026-05-07 01:29 37.29637 -76.55798 21189 ft 359 kts 259°
2026-05-07 01:29 37.29077 -76.58849 20784 ft 358 kts 259°
2026-05-07 01:29 37.28526 -76.61889 20394 ft 356 kts 259°
2026-05-07 01:30 37.27980 -76.64924 20031 ft 356 kts 259°
2026-05-07 01:30 37.27438 -76.67969 19930 ft 358 kts 259°
2026-05-07 01:30 37.26901 -76.71001 19915 ft 354 kts 259°
2026-05-07 01:30 37.26368 -76.74022 19919 ft 354 kts 259°
2026-05-07 01:31 37.25835 -76.77048 19921 ft 355 kts 259°
2026-05-07 01:31 37.25305 -76.80072 19925 ft 355 kts 259°
2026-05-07 01:31 37.24781 -76.83068 19920 ft 356 kts 259°
2026-05-07 01:31 37.24252 -76.86100 19921 ft 356 kts 259°
2026-05-07 01:32 37.23723 -76.89141 19916 ft 356 kts 259°
2026-05-07 01:32 37.23198 -76.92170 19922 ft 355 kts 259°
2026-05-07 01:32 37.22675 -76.95202 19910 ft 355 kts 259°
2026-05-07 01:32 37.22152 -76.98233 19918 ft 355 kts 259°
2026-05-07 01:33 37.21632 -77.01258 19925 ft 355 kts 259°
2026-05-07 01:33 37.21112 -77.04284 19920 ft 354 kts 259°
2026-05-07 01:33 37.20595 -77.07307 19931 ft 354 kts 259°
2026-05-07 01:33 37.20083 -77.10303 19912 ft 344 kts 259°
2026-05-07 01:34 37.19593 -77.13170 19909 ft 328 kts 259°
2026-05-07 01:34 37.19122 -77.15904 19911 ft 314 kts 259°
2026-05-07 01:34 37.18661 -77.18570 19916 ft 312 kts 259°
2026-05-07 01:34 37.18207 -77.21192 19923 ft 311 kts 259°
2026-05-07 01:35 37.17749 -77.23848 19929 ft 312 kts 259°
2026-05-07 01:35 37.17292 -77.26508 19928 ft 312 kts 259°
2026-05-07 01:35 37.16834 -77.29173 19937 ft 313 kts 259°
2026-05-07 01:35 37.16377 -77.31838 19931 ft 313 kts 259°
2026-05-07 01:36 37.15919 -77.34507 19935 ft 313 kts 259°
2026-05-07 01:36 37.15462 -77.37175 19931 ft 313 kts 259°
2026-05-07 01:36 37.15005 -77.39850 19931 ft 313 kts 259°
2026-05-07 01:36 37.14548 -77.42519 19942 ft 313 kts 259°
2026-05-07 01:37 37.14093 -77.45185 19934 ft 313 kts 259°
2026-05-07 01:37 37.13638 -77.47845 19933 ft 312 kts 259°
2026-05-07 01:37 37.13183 -77.50507 19940 ft 312 kts 259°
2026-05-07 01:37 37.12730 -77.53161 19930 ft 311 kts 259°
2026-05-07 01:38 37.12283 -77.55777 19938 ft 311 kts 259°
2026-05-07 01:38 37.11831 -77.58432 19932 ft 311 kts 260°
2026-05-07 01:38 37.11379 -77.61085 19940 ft 311 kts 260°
2026-05-07 01:38 37.10929 -77.63731 19929 ft 311 kts 260°
2026-05-07 01:39 37.10477 -77.66376 19933 ft 310 kts 260°
2026-05-07 01:39 37.10025 -77.69025 19936 ft 310 kts 260°
2026-05-07 01:39 37.09457 -77.71625 19929 ft 310 kts 250°
2026-05-07 01:39 37.08315 -77.73946 19920 ft 318 kts 235°
2026-05-07 01:40 37.06643 -77.75780 19924 ft 331 kts 220°
2026-05-07 01:40 37.04519 -77.77020 19926 ft 345 kts 205°
2026-05-07 01:40 37.02102 -77.77534 19925 ft 360 kts 191°
2026-05-07 01:40 36.99553 -77.77263 19917 ft 376 kts 176°
2026-05-07 01:41 36.97034 -77.76200 19918 ft 390 kts 162°
2026-05-07 01:41 36.94693 -77.74388 19950 ft 401 kts 148°
2026-05-07 01:41 36.92587 -77.72052 19935 ft 406 kts 142°
2026-05-07 01:41 36.90578 -77.69568 19947 ft 407 kts 140°
2026-05-07 01:42 36.88588 -77.67041 19948 ft 407 kts 140°
2026-05-07 01:42 36.86605 -77.64509 19947 ft 407 kts 140°
2026-05-07 01:42 36.84656 -77.62014 19942 ft 406 kts 140°
2026-05-07 01:42 36.82661 -77.59456 19936 ft 406 kts 140°
2026-05-07 01:43 36.80724 -77.56969 19951 ft 405 kts 140°
2026-05-07 01:43 36.78763 -77.54451 19947 ft 404 kts 140°
2026-05-07 01:43 36.76809 -77.51942 19824 ft 401 kts 140°
2026-05-07 01:43 36.74869 -77.49450 19577 ft 400 kts 140°
2026-05-07 01:44 36.72928 -77.46963 19312 ft 400 kts 140°
2026-05-07 01:44 36.71643 -77.45319 19143 ft 399 kts 140°
2026-05-07 01:44 36.69706 -77.42846 18914 ft 398 kts 140°
2026-05-07 01:44 36.67777 -77.40385 18692 ft 396 kts 140°
2026-05-07 01:45 36.65848 -77.37929 18483 ft 394 kts 140°
2026-05-07 01:45 36.63933 -77.35495 18240 ft 393 kts 140°
2026-05-07 01:45 36.62023 -77.33070 18037 ft 390 kts 140°
2026-05-07 01:45 36.60135 -77.30674 17968 ft 385 kts 140°
2026-05-07 01:46 36.58250 -77.28284 17960 ft 387 kts 140°
2026-05-07 01:46 36.56349 -77.25880 17960 ft 391 kts 140°
2026-05-07 01:46 36.54433 -77.23464 17952 ft 392 kts 140°
2026-05-07 01:46 36.52521 -77.21053 17947 ft 391 kts 140°
2026-05-07 01:47 36.50463 -77.18999 17912 ft 371 kts 160°
2026-05-07 01:47 36.48059 -77.18150 17619 ft 352 kts 185°
2026-05-07 01:47 36.45721 -77.18450 17159 ft 337 kts 202°
2026-05-07 01:47 36.43592 -77.19523 16685 ft 326 kts 216°
2026-05-07 01:48 36.41782 -77.21140 16356 ft 315 kts 227°
2026-05-07 01:48 36.40285 -77.23078 16140 ft 307 kts 236°
2026-05-07 01:48 36.39204 -77.25305 15929 ft 299 kts 253°
2026-05-07 01:48 36.38663 -77.27794 15763 ft 302 kts 258°
2026-05-07 01:49 36.38170 -77.30358 15570 ft 306 kts 258°
2026-05-07 01:49 36.37677 -77.32930 15374 ft 306 kts 258°
2026-05-07 01:49 36.37183 -77.35487 15172 ft 304 kts 258°
2026-05-07 01:49 36.36685 -77.38034 14991 ft 303 kts 258°
2026-05-07 01:50 36.36185 -77.40572 14796 ft 302 kts 258°
2026-05-07 01:50 36.35684 -77.43096 14609 ft 300 kts 257°
2026-05-07 01:50 36.35183 -77.45604 14423 ft 299 kts 257°
2026-05-07 01:50 36.34688 -77.48078 14243 ft 298 kts 257°
2026-05-07 01:51 36.34188 -77.50566 14057 ft 296 kts 257°
2026-05-07 01:51 36.33687 -77.53051 13878 ft 295 kts 257°
2026-05-07 01:51 36.33190 -77.55519 13691 ft 295 kts 257°
2026-05-07 01:51 36.32691 -77.57986 13488 ft 294 kts 257°
2026-05-07 01:52 36.32196 -77.60432 13341 ft 290 kts 257°
2026-05-07 01:52 36.31711 -77.62827 13192 ft 282 kts 257°
2026-05-07 01:52 36.31243 -77.65131 13113 ft 270 kts 257°
2026-05-07 01:52 36.30792 -77.67348 12724 ft 269 kts 257°
2026-05-07 01:53 36.30332 -77.69608 12338 ft 269 kts 257°
2026-05-07 01:53 36.29877 -77.71846 11987 ft 267 kts 257°
2026-05-07 01:53 36.29425 -77.74065 11660 ft 264 kts 257°
2026-05-07 01:53 36.28976 -77.76268 11324 ft 263 kts 256°
2026-05-07 01:54 36.28530 -77.78455 10986 ft 261 kts 256°
2026-05-07 01:54 36.28085 -77.80635 10637 ft 260 kts 256°
2026-05-07 01:54 36.27640 -77.82809 10304 ft 259 kts 256°
2026-05-07 01:54 36.27199 -77.84968 10027 ft 258 kts 256°
2026-05-07 01:55 36.26762 -77.87103 9945 ft 254 kts 256°
2026-05-07 01:55 36.26343 -77.89142 9722 ft 236 kts 256°
2026-05-07 01:55 36.25958 -77.91021 9499 ft 215 kts 256°
2026-05-07 01:55 36.25601 -77.92761 9321 ft 203 kts 256°
2026-05-07 01:56 36.25253 -77.94458 9198 ft 207 kts 256°
2026-05-07 01:56 36.24889 -77.96228 9085 ft 216 kts 256°
2026-05-07 01:56 36.24518 -77.98037 8927 ft 216 kts 256°
2026-05-07 01:56 36.24149 -77.99825 8739 ft 212 kts 256°
2026-05-07 01:57 36.23787 -78.01577 8554 ft 208 kts 256°
2026-05-07 01:57 36.23429 -78.03311 8373 ft 208 kts 256°
2026-05-07 01:57 36.23056 -78.05037 8205 ft 207 kts 252°
2026-05-07 01:57 36.22492 -78.06683 8034 ft 208 kts 247°
2026-05-07 01:58 36.21875 -78.08308 7873 ft 209 kts 247°
2026-05-07 01:58 36.21258 -78.09943 7718 ft 210 kts 247°
2026-05-07 01:58 36.20645 -78.11594 7552 ft 211 kts 248°
2026-05-07 01:58 36.20075 -78.13271 7359 ft 212 kts 249°
2026-05-07 01:59 36.19512 -78.14953 7212 ft 212 kts 249°
2026-05-07 01:59 36.18947 -78.16643 7053 ft 211 kts 249°
2026-05-07 01:59 36.18378 -78.18346 6949 ft 220 kts 249°
2026-05-07 01:59 36.17775 -78.20149 6731 ft 233 kts 249°
2026-05-07 02:00 36.17132 -78.22069 6569 ft 248 kts 249°
2026-05-07 02:00 36.16463 -78.24061 6406 ft 251 kts 249°
2026-05-07 02:00 36.15788 -78.26070 6242 ft 253 kts 249°
2026-05-07 02:00 36.15117 -78.28069 6058 ft 250 kts 250°
2026-05-07 02:01 36.14631 -78.30086 5892 ft 247 kts 257°
2026-05-07 02:01 36.14287 -78.32152 5710 ft 243 kts 259°
2026-05-07 02:01 36.13957 -78.34169 5536 ft 236 kts 258°
2026-05-07 02:01 36.13624 -78.36125 5339 ft 223 kts 258°
2026-05-07 02:02 36.13311 -78.37915 5134 ft 203 kts 257°
2026-05-07 02:02 36.13013 -78.39593 5082 ft 198 kts 258°
2026-05-07 02:02 36.12717 -78.41256 5030 ft 197 kts 257°
2026-05-07 02:02 36.12420 -78.42906 5026 ft 195 kts 256°
2026-05-07 02:03 36.12108 -78.44548 5030 ft 198 kts 256°
2026-05-07 02:03 36.11793 -78.46219 5020 ft 200 kts 257°
2026-05-07 02:03 36.11497 -78.47880 5001 ft 200 kts 258°
2026-05-07 02:03 36.11197 -78.49558 5005 ft 199 kts 256°
2026-05-07 02:04 36.10830 -78.51182 4993 ft 192 kts 259°
2026-05-07 02:04 36.11045 -78.52715 4992 ft 181 kts 295°
2026-05-07 02:04 36.11904 -78.53860 5009 ft 185 kts 309°
2026-05-07 02:04 36.12871 -78.54911 4997 ft 184 kts 310°
2026-05-07 02:05 36.13825 -78.55947 4997 ft 180 kts 310°
2026-05-07 02:05 36.14619 -78.57060 4969 ft 165 kts 286°
2026-05-07 02:05 36.14641 -78.58417 4924 ft 161 kts 248°
2026-05-07 02:05 36.13918 -78.59448 4586 ft 161 kts 221°
2026-05-07 02:06 36.12985 -78.60260 4283 ft 165 kts 221°
2026-05-07 02:06 36.12063 -78.61066 4109 ft 163 kts 221°
2026-05-07 02:06 36.11132 -78.61874 3890 ft 165 kts 220°
2026-05-07 02:06 36.10194 -78.62698 3715 ft 165 kts 220°
2026-05-07 02:07 36.09262 -78.63517 3540 ft 163 kts 220°
2026-05-07 02:07 36.07445 -78.65127 3210 ft 160 kts 220°
2026-05-07 02:07 36.06550 -78.65925 3097 ft 156 kts 220°
2026-05-07 02:08 36.05659 -78.66728 3053 ft 160 kts 220°
2026-05-07 02:08 36.04639 -78.67347 3004 ft 167 kts 202°
2026-05-07 02:08 36.03463 -78.67534 3003 ft 172 kts 191°
2026-05-07 02:08 36.02286 -78.67612 3000 ft 172 kts 191°
2026-05-07 02:09 36.01076 -78.67672 2979 ft 172 kts 191°
2026-05-07 02:09 35.99886 -78.67735 2850 ft 174 kts 191°
2026-05-07 02:09 35.98681 -78.67809 2721 ft 172 kts 191°
2026-05-07 02:09 35.97589 -78.68197 2555 ft 161 kts 218°
2026-05-07 02:10 35.96707 -78.69061 2451 ft 164 kts 221°
2026-05-07 02:10 35.95823 -78.69942 2313 ft 162 kts 221°
2026-05-07 02:10 35.94966 -78.70871 2279 ft 167 kts 225°
2026-05-07 02:10 35.94145 -78.71895 2129 ft 168 kts 228°
2026-05-07 02:11 35.93358 -78.72960 1764 ft 173 kts 226°
2026-05-07 02:11 35.92501 -78.73990 1371 ft 167 kts 223°
2026-05-07 02:11 35.91723 -78.74950 1092 ft 150 kts 225°
2026-05-07 02:11 35.91023 -78.75809 937 ft 133 kts 224°
2026-05-07 02:12 35.90361 -78.76602 765 ft 137 kts 225°
2026-05-07 02:12 35.89686 -78.77442 520 ft 137 kts 224°
2026-05-07 02:12 35.89025 -78.78250 409 ft 123 kts 224°
2026-05-07 02:12 35.88547 -78.78838 402 ft 68 kts 225°
2026-05-07 02:13 35.88377 -78.79035 398 ft 17 kts 213°
2026-05-07 02:13 35.88293 -78.79064 395 ft 11 kts 171°
2026-05-07 02:13 35.88254 -78.79038 393 ft 3 kts 141°
2026-05-07 02:13 35.88248 -78.79032 393 ft 0 kts 138°
2026-05-07 02:14 35.88247 -78.79032 393 ft 1 kts 143°
2026-05-07 02:14 35.88222 -78.79048 395 ft 15 kts 212°
2026-05-07 02:15 35.88180 -78.79098 396 ft 1 kts 226°
2026-05-07 02:15 35.88177 -78.79102 393 ft 0 kts 226°
2026-05-07 02:15 35.88175 -78.79105 394 ft 0 kts 226°
2026-05-07 02:15 35.88169 -78.79112 393 ft 0 kts 226°
2026-05-07 02:16 35.88167 -78.79115 393 ft 4 kts 226°
2026-05-07 02:16 35.88159 -78.79125 395 ft 0 kts 226°
2026-05-07 02:16 35.88135 -78.79157 395 ft 15 kts 226°
2026-05-07 02:16 35.88078 -78.79228 394 ft 11 kts 226°
2026-05-07 02:17 35.88004 -78.79320 392 ft 14 kts 226°
2026-05-07 02:17 35.87938 -78.79408 393 ft 14 kts 227°
2026-05-07 02:17 35.87853 -78.79506 392 ft 19 kts 224°
2026-05-07 02:17 35.87773 -78.79604 389 ft 15 kts 225°
2026-05-07 02:18 35.87693 -78.79702 386 ft 18 kts 224°
2026-05-07 02:18 35.87608 -78.79805 382 ft 15 kts 220°
2026-05-07 02:18 35.87548 -78.79791 381 ft 8 kts 111°
2026-05-07 02:18 35.87522 -78.79727 381 ft 9 kts 104°
2026-05-07 02:19 35.87519 -78.79696 381 ft 0 kts 91°